軌道要素
Epoch 2018 Aug. 30.0 TT = JDT 2458360.5
T 2018 Aug. 15.95648 TT MPCW
q 0.2085523 (2000.0) P Q
z +0.0003161 Peri. 255.78201 +0.21887938 -0.96353989
Node 171.03523 +0.20766602 +0.20010323
e 0.9999341 Incl. 99.03918 -0.95339742 -0.17762202
From 823 observations 2017 Aug. 17-2018 Aug. 3, mean residual 0".8.
Nongravitational parameters A1 = +24.25, A2 = +1.3752.
|